South Haven, MI

6:53 AM EDT on June 27, 2017 (GMT -0400)
South Haven

Weather History for KLWA - September, 2012

Change the Weather History Date:

Tuesday, September 4, 2012

  Actual Average (KBEH) Record (KBEH)
Temperature  
Mean Temperature 73 °F -  
Max Temperature 80 °F 78 °F 95 °F (1999)
Min Temperature 66 °F 54 °F 36 °F (1997)
Cooling Degree Days 8    
Growing Degree Days 23 (Base 50)    
Moisture  
Dew Point 67 °F    
Average Humidity 84    
Maximum Humidity 96    
Minimum Humidity 65    
Precipitation  
Precipitation 0.00 in - - ()
Sea Level Pressure  
Sea Level Pressure 29.88 in    
Wind  
Wind Speed 2 mph (NW)    
Max Wind Speed 16 mph    
Max Gust Speed 26 mph    
Visibility 8 miles    
Events Rain    
Averages and records for this station are not official NWS values.
T = Trace of Precipitation, MM = Missing Value Source: NWS Daily Summary

Daily Weather History Graph

Daily Weather History Graph

Search for Another Location

Airport or City:

Trip Planner

Search our weather history database for the weather conditions in past years. The results will help you decide how hot, cold, wet, or windy it might be!

Date:

Astronomy

Sep. 04, 2012 Rise Set
Actual Time 7:13 AM EDT 8:13 PM EDT
Civil Twilight 6:45 AM EDT 8:41 PM EDT
Nautical Twilight 6:11 AM EDT 9:15 PM EDT
Astronomical Twilight 5:35 AM EDT 9:51 PM EDT
Moon 9:59 PM EDT (9/4) 11:26 AM EDT (9/4)
Length of Visible Light 13h 56m
Length of Day
12h 59m
Waning Gibbous, 84% of the Moon is Illuminated
Sep 4
Waning Gibbous
Sep 8
Last Quarter
Sep 15
New
Sep 22
First Quarter
Sep 29
Full

Hourly Weather History & Observations

Time (EDT) Temp. Heat Index Dew Point Humidity Pressure Visibility Wind Dir Wind Speed Gust Speed Precip Events Conditions
12:15 AM 69.8 °F - 67.8 °F 93% 29.89 in 5.0 mi Calm Calm - N/A   Clear
12:35 AM 68.9 °F - 67.1 °F 94% 29.89 in 5.0 mi Calm Calm - N/A   Clear
12:54 AM 69.3 °F - 67.1 °F 93% 29.89 in 5.0 mi Calm Calm - N/A   Clear
1:15 AM 69.1 °F - 66.9 °F 93% 29.88 in 5.0 mi Calm Calm - N/A   Clear
1:35 AM 69.1 °F - 67.1 °F 93% 29.88 in 7.0 mi Calm Calm - N/A   Clear
1:55 AM 68.7 °F - 67.1 °F 95% 29.87 in 5.0 mi Calm Calm - N/A   Clear
2:15 AM 68.0 °F - 66.4 °F 95% 29.87 in 4.0 mi Calm Calm - N/A   Clear
2:34 AM 68.4 °F - 66.6 °F 94% 29.88 in 5.0 mi Calm Calm - N/A   Clear
2:55 AM 68.0 °F - 66.4 °F 95% 29.87 in 4.0 mi Calm Calm - N/A   Clear
3:15 AM 67.5 °F - 65.7 °F 94% 29.88 in 4.0 mi Calm Calm - N/A   Clear
3:35 AM 67.5 °F - 66.2 °F 96% 29.88 in 4.0 mi Calm Calm - N/A   Clear
3:55 AM 67.8 °F - 66.0 °F 94% 29.87 in 5.0 mi Calm Calm - N/A   Clear
4:15 AM 68.0 °F - 66.2 °F 94% 29.88 in 5.0 mi Calm Calm - N/A   Scattered Clouds
4:35 AM 71.1 °F - 68.9 °F 93% 29.90 in 7.0 mi West 5.8 mph - N/A   Mostly Cloudy
4:54 AM 72.1 °F - 69.1 °F 90% 29.89 in 7.0 mi West 5.8 mph - N/A Rain Light Rain
5:15 AM 72.1 °F - 69.8 °F 92% 29.89 in 7.0 mi NNW 10.4 mph 17.3 mph N/A Rain Light Rain
5:54 AM 71.4 °F - 69.3 °F 93% 29.91 in 5.0 mi NNW 11.5 mph 20.7 mph N/A Rain Light Rain
6:15 AM 70.7 °F - 68.4 °F 92% 29.91 in 7.0 mi NW 16.1 mph 23.0 mph N/A Rain Rain
6:35 AM 69.8 °F - 67.8 °F 93% 29.92 in 7.0 mi NW 9.2 mph 26.5 mph N/A Rain Rain
6:55 AM 68.4 °F - 66.0 °F 92% 29.93 in 4.0 mi West 4.6 mph - N/A Rain Heavy Rain
7:15 AM 68.0 °F - 66.2 °F 94% 29.90 in 5.0 mi East 3.5 mph - N/A Rain Light Rain
7:34 AM 67.6 °F - 66.2 °F 95% 29.89 in 10.0 mi East 6.9 mph - N/A Rain Rain
7:55 AM 67.5 °F - 66.2 °F 96% 29.89 in 10.0 mi East 6.9 mph - N/A Rain Light Rain
8:15 AM 67.6 °F - 66.2 °F 95% 29.89 in 10.0 mi Calm Calm - N/A   Clear
8:34 AM 68.2 °F - 66.4 °F 94% 29.90 in 10.0 mi Calm Calm - N/A   Clear
8:55 AM 68.5 °F - 66.7 °F 94% 29.90 in 10.0 mi Calm Calm - N/A   Clear
9:15 AM 68.9 °F - 66.7 °F 93% 29.90 in 10.0 mi Calm Calm - N/A   Clear
9:35 AM 69.4 °F - 67.3 °F 93% 29.90 in 10.0 mi Calm Calm - N/A   Clear
9:55 AM 70.3 °F - 67.5 °F 91% 29.89 in 10.0 mi Calm Calm - N/A   Clear
10:14 AM 71.4 °F - 68.4 °F 90% 29.90 in 10.0 mi Calm Calm - N/A   Clear
10:35 AM 72.5 °F - 68.7 °F 88% 29.90 in 10.0 mi Calm Calm - N/A   Clear
10:55 AM 74.3 °F - 68.4 °F 82% 29.90 in 10.0 mi NNE 3.5 mph - N/A   Clear
11:14 AM 75.4 °F - 67.3 °F 76% 29.91 in 10.0 mi Calm Calm - N/A   Clear
11:35 AM 75.9 °F - 66.7 °F 73% 29.91 in 10.0 mi North 3.5 mph - N/A   Clear
11:54 AM 76.6 °F - 67.8 °F 74% 29.91 in 10.0 mi NNW 4.6 mph - N/A   Clear
12:15 PM 78.3 °F - 69.3 °F 74% 29.91 in 10.0 mi WNW 4.6 mph - N/A   Clear
12:35 PM 78.1 °F - 68.4 °F 72% 29.92 in 10.0 mi NW 4.6 mph - N/A   Clear
12:54 PM 78.1 °F - 68.0 °F 71% 29.91 in 10.0 mi NW 3.5 mph - N/A   Clear
1:15 PM 79.0 °F - 69.4 °F 72% 29.90 in 10.0 mi NNW 4.6 mph - N/A   Clear
1:35 PM 79.3 °F - 70.0 °F 73% 29.89 in 10.0 mi West 3.5 mph - N/A   Clear
1:55 PM 79.7 °F - 69.3 °F 70% 29.89 in 10.0 mi WNW 3.5 mph - N/A   Clear
2:14 PM 80.6 °F 83.5 °F 68.9 °F 67% 29.89 in 10.0 mi NW 3.5 mph - N/A   Clear
2:35 PM 79.9 °F - 69.3 °F 70% 29.88 in 10.0 mi WNW 4.6 mph - N/A   Clear
2:55 PM 80.2 °F 83.1 °F 68.9 °F 68% 29.88 in 10.0 mi Calm Calm - N/A   Clear
3:15 PM 80.6 °F 83.5 °F 68.9 °F 67% 29.87 in 10.0 mi NW 5.8 mph - N/A   Clear
3:35 PM 80.8 °F 83.8 °F 68.7 °F 67% 29.87 in 10.0 mi WNW 5.8 mph - N/A   Clear
3:55 PM 80.1 °F 82.7 °F 68.2 °F 67% 29.86 in 10.0 mi WNW 8.1 mph - N/A   Clear
4:15 PM 79.3 °F - 68.2 °F 69% 29.87 in 10.0 mi West 8.1 mph - N/A   Clear
4:34 PM 78.8 °F - 67.5 °F 68% 29.87 in 10.0 mi WNW 5.8 mph - N/A   Clear
4:55 PM 78.6 °F - 66.9 °F 67% 29.86 in 10.0 mi WNW 3.5 mph - N/A   Clear
5:15 PM 79.2 °F - 66.6 °F 65% 29.87 in 10.0 mi WNW 4.6 mph - N/A   Clear
5:34 PM 79.2 °F - 66.6 °F 65% 29.87 in 10.0 mi WNW 3.5 mph - N/A   Clear
5:55 PM 79.0 °F - 66.2 °F 65% 29.87 in 10.0 mi WNW 3.5 mph - N/A   Clear
6:15 PM 79.0 °F - 66.7 °F 66% 29.87 in 10.0 mi NW 3.5 mph - N/A   Clear
6:34 PM 77.5 °F - 67.1 °F 70% 29.87 in 10.0 mi Calm Calm - N/A   Clear
6:55 PM 77.2 °F - 67.1 °F 71% 29.86 in 10.0 mi Calm Calm - N/A   Clear
7:14 PM 76.5 °F - 67.8 °F 75% 29.86 in 10.0 mi Calm Calm - N/A   Clear
7:35 PM 75.9 °F - 67.3 °F 74% 29.86 in 10.0 mi Calm Calm - N/A   Clear
7:55 PM 75.0 °F - 67.3 °F 77% 29.85 in 10.0 mi Calm Calm - N/A   Clear
8:14 PM 72.5 °F - 68.0 °F 86% 29.85 in 10.0 mi Calm Calm - N/A   Clear
8:35 PM 70.7 °F - 68.0 °F 91% 29.85 in 10.0 mi Calm Calm - N/A   Clear
8:55 PM 69.6 °F - 67.3 °F 92% 29.85 in 10.0 mi Calm Calm - N/A   Clear
9:15 PM 68.9 °F - 66.9 °F 93% 29.86 in 10.0 mi Calm Calm - N/A   Clear
9:35 PM 68.4 °F - 67.1 °F 96% 29.86 in 7.0 mi Calm Calm - N/A   Clear
9:54 PM 67.6 °F - 66.0 °F 95% 29.86 in 7.0 mi Calm Calm - N/A   Clear
10:15 PM 67.3 °F - 66.0 °F 96% 29.86 in 7.0 mi Calm Calm - N/A   Clear
10:35 PM 67.3 °F - 65.8 °F 95% 29.85 in 7.0 mi Calm Calm - N/A   Clear
10:54 PM 66.6 °F - 65.3 °F 96% 29.85 in 7.0 mi Calm Calm - N/A   Clear
11:15 PM 66.2 °F - 64.9 °F 96% 29.86 in 7.0 mi Calm Calm - N/A   Clear
11:34 PM 66.2 °F - 64.8 °F 95% 29.86 in 7.0 mi Calm Calm - N/A   Clear
11:55 PM 66.2 °F - 64.9 °F 96% 29.86 in 7.0 mi Calm Calm - N/A   Clear